THY6805 LTFJ-LTAU

Flight info

Callsign THY6805
Flight time 1h 0m
Altitude 35000
Route LTFJ/06R N0437F350 VICE1W VICEN T57 VEVUD UT341 BAG UL614 GOBIT UG8 MARTI UW76 SARIZ SARI1P LTAU/25
Aircraft B738/M-CDT/C

Departure

Time 2026-04-28 17:41
Airport Istanbul Sabiha Gökçen International Airport (LTFJ)

Arrival

Time 2026-04-28 18:41
Airport Kayseri Erkilet International Airport (LTAU)
Time Latitude Longitude Altitude Speed Heading
2026-04-28 17:24 40.90599 29.31561 320 ft 0 kts 333°
2026-04-28 17:33 40.90592 29.31565 320 ft 2 kts 333°
2026-04-28 17:34 40.90573 29.31578 318 ft 2 kts 333°
2026-04-28 17:34 40.90558 29.31587 319 ft 2 kts 329°
2026-04-28 17:34 40.90545 29.31601 318 ft 2 kts 284°
2026-04-28 17:34 40.90545 29.31614 319 ft 1 kts 243°
2026-04-28 17:35 40.90546 29.31616 319 ft 0 kts 243°
2026-04-28 17:35 40.90545 29.31614 319 ft 1 kts 243°
2026-04-28 17:36 40.90531 29.31578 318 ft 8 kts 243°
2026-04-28 17:36 40.90494 29.31482 319 ft 15 kts 243°
2026-04-28 17:36 40.90437 29.31335 320 ft 21 kts 243°
2026-04-28 17:36 40.90363 29.31146 320 ft 25 kts 243°
2026-04-28 17:37 40.90278 29.30960 320 ft 23 kts 224°
2026-04-28 17:37 40.90130 29.30918 320 ft 22 kts 173°
2026-04-28 17:37 40.90023 29.30802 318 ft 22 kts 245°
2026-04-28 17:37 40.89960 29.30625 320 ft 21 kts 245°
2026-04-28 17:38 40.89898 29.30450 319 ft 21 kts 245°
2026-04-28 17:38 40.89835 29.30272 319 ft 23 kts 245°
2026-04-28 17:38 40.89765 29.30074 320 ft 24 kts 245°
2026-04-28 17:38 40.89687 29.29873 319 ft 25 kts 242°
2026-04-28 17:39 40.89611 29.29680 320 ft 23 kts 242°
2026-04-28 17:39 40.89539 29.29494 320 ft 22 kts 243°
2026-04-28 17:39 40.89344 29.29284 319 ft 21 kts 154°
2026-04-28 17:40 40.89312 29.29446 320 ft 20 kts 67°
2026-04-28 17:40 40.89446 29.29814 320 ft 79 kts 64°
2026-04-28 17:40 40.89791 29.30744 319 ft 143 kts 64°
2026-04-28 17:40 40.90287 29.32118 514 ft 179 kts 65°
2026-04-28 17:41 40.90822 29.33614 1289 ft 181 kts 65°
2026-04-28 17:41 40.91367 29.35122 1896 ft 181 kts 64°
2026-04-28 17:41 40.91922 29.36630 2249 ft 183 kts 66°
2026-04-28 17:41 40.92328 29.38231 2624 ft 185 kts 80°
2026-04-28 17:42 40.92320 29.39896 2979 ft 185 kts 107°
2026-04-28 17:42 40.92021 29.40976 3262 ft 184 kts 111°
2026-04-28 17:42 40.91534 29.43149 3761 ft 188 kts 104°
2026-04-28 17:42 40.91154 29.44857 4158 ft 204 kts 123°
2026-04-28 17:43 40.90019 29.45978 4552 ft 212 kts 168°
2026-04-28 17:43 40.88526 29.46137 4960 ft 222 kts 168°
2026-04-28 17:43 40.87161 29.47138 5369 ft 231 kts 145°
2026-04-28 17:43 40.85683 29.48102 5736 ft 243 kts 159°
2026-04-28 17:44 40.84076 29.48975 6140 ft 255 kts 157°
2026-04-28 17:44 40.82420 29.49929 6673 ft 266 kts 156°
2026-04-28 17:44 40.80704 29.50966 7238 ft 276 kts 155°
2026-04-28 17:44 40.78965 29.52047 7786 ft 276 kts 155°
2026-04-28 17:45 40.77362 29.53437 8315 ft 279 kts 132°
2026-04-28 17:45 40.76384 29.55630 8883 ft 279 kts 109°
2026-04-28 17:45 40.75861 29.58101 9456 ft 281 kts 104°
2026-04-28 17:45 40.75386 29.60620 10019 ft 284 kts 104°
2026-04-28 17:46 40.74916 29.63162 10554 ft 288 kts 102°
2026-04-28 17:46 40.74542 29.65872 10765 ft 312 kts 99°
2026-04-28 17:46 40.74198 29.68800 10969 ft 335 kts 99°
2026-04-28 17:46 40.73849 29.71850 11443 ft 346 kts 99°
2026-04-28 17:47 40.73478 29.75048 12145 ft 350 kts 99°
2026-04-28 17:47 40.73105 29.78190 12872 ft 352 kts 99°
2026-04-28 17:47 40.72717 29.81388 13577 ft 356 kts 99°
2026-04-28 17:47 40.72450 29.83572 14028 ft 358 kts 99°
2026-04-28 17:48 40.71915 29.87894 14909 ft 363 kts 99°
2026-04-28 17:48 40.71504 29.91193 15563 ft 367 kts 99°
2026-04-28 17:48 40.71086 29.94526 16199 ft 370 kts 99°
2026-04-28 17:48 40.70664 29.97888 16814 ft 374 kts 99°
2026-04-28 17:49 40.70237 30.01282 17417 ft 377 kts 99°
2026-04-28 17:49 40.69805 30.04704 18009 ft 380 kts 99°
2026-04-28 17:49 40.69368 30.08158 18585 ft 384 kts 99°
2026-04-28 17:49 40.68927 30.11638 19147 ft 387 kts 99°
2026-04-28 17:50 40.68480 30.15160 19696 ft 390 kts 99°
2026-04-28 17:50 40.68029 30.18706 20246 ft 393 kts 100°
2026-04-28 17:50 40.67574 30.22269 20774 ft 396 kts 100°
2026-04-28 17:50 40.67106 30.25868 21274 ft 399 kts 102°
2026-04-28 17:51 40.66315 30.29381 21767 ft 402 kts 112°
2026-04-28 17:51 40.65071 30.32683 22263 ft 403 kts 122°
2026-04-28 17:51 40.63448 30.35647 22719 ft 406 kts 128°
2026-04-28 17:51 40.61683 30.38570 23154 ft 409 kts 129°
2026-04-28 17:52 40.59892 30.41516 23579 ft 413 kts 129°
2026-04-28 17:52 40.58112 30.44493 23996 ft 416 kts 128°
2026-04-28 17:52 40.54615 30.50615 24823 ft 422 kts 121°
2026-04-28 17:53 40.53268 30.54052 25221 ft 425 kts 112°
2026-04-28 17:53 40.52360 30.57751 25610 ft 427 kts 103°
2026-04-28 17:53 40.51714 30.61576 26001 ft 429 kts 102°
2026-04-28 17:53 40.51089 30.65428 26372 ft 431 kts 102°
2026-04-28 17:54 40.50432 30.69289 26730 ft 434 kts 103°
2026-04-28 17:54 40.49755 30.73118 27063 ft 436 kts 104°
2026-04-28 17:54 40.48955 30.76971 27379 ft 439 kts 107°
2026-04-28 17:54 40.48052 30.80817 27695 ft 441 kts 108°
2026-04-28 17:55 40.47113 30.84663 28019 ft 443 kts 108°
2026-04-28 17:55 40.46167 30.88521 28327 ft 445 kts 108°
2026-04-28 17:55 40.45223 30.92408 28632 ft 447 kts 108°
2026-04-28 17:55 40.44282 30.96316 28925 ft 449 kts 108°
2026-04-28 17:56 40.43347 31.00227 29201 ft 451 kts 108°
2026-04-28 17:56 40.42405 31.04177 29481 ft 453 kts 108°
2026-04-28 17:56 40.41461 31.08132 29757 ft 455 kts 108°
2026-04-28 17:56 40.40511 31.12106 30025 ft 457 kts 108°
2026-04-28 17:57 40.39881 31.14741 30211 ft 458 kts 108°
2026-04-28 17:57 40.38925 31.18723 30559 ft 457 kts 108°
2026-04-28 17:57 40.37988 31.22699 30946 ft 455 kts 105°
2026-04-28 17:57 40.37245 31.26727 31293 ft 454 kts 103°
2026-04-28 17:58 40.36590 31.30783 31605 ft 454 kts 102°
2026-04-28 17:58 40.35965 31.34835 31903 ft 454 kts 102°
2026-04-28 17:58 40.35339 31.38894 32232 ft 453 kts 102°
2026-04-28 17:58 40.34704 31.42940 32554 ft 452 kts 102°
2026-04-28 17:59 40.34057 31.46976 32847 ft 452 kts 102°
2026-04-28 17:59 40.33403 31.51004 33128 ft 451 kts 102°
2026-04-28 17:59 40.32744 31.55018 33417 ft 451 kts 102°
2026-04-28 17:59 40.32083 31.59031 33702 ft 450 kts 102°
2026-04-28 18:00 40.31421 31.63041 33968 ft 450 kts 102°
2026-04-28 18:00 40.30759 31.67037 34219 ft 449 kts 102°
2026-04-28 18:00 40.30096 31.71041 34466 ft 449 kts 102°
2026-04-28 18:00 40.29431 31.75044 34733 ft 449 kts 102°
2026-04-28 18:01 40.28769 31.79026 34980 ft 448 kts 102°
2026-04-28 18:01 40.28103 31.83023 34980 ft 452 kts 102°
2026-04-28 18:01 40.26754 31.91086 34993 ft 452 kts 103°
2026-04-28 18:02 40.25171 31.98983 34990 ft 446 kts 106°
2026-04-28 18:02 40.23429 32.06773 34999 ft 445 kts 107°
2026-04-28 18:03 40.21712 32.14487 35008 ft 444 kts 106°
2026-04-28 18:03 40.20009 32.22249 35004 ft 444 kts 106°
2026-04-28 18:04 40.18312 32.30001 35008 ft 444 kts 106°
2026-04-28 18:04 40.16604 32.37779 34999 ft 445 kts 106°
2026-04-28 18:05 40.15181 32.44235 35003 ft 446 kts 106°
2026-04-28 18:05 40.14337 32.48053 35002 ft 446 kts 106°
2026-04-28 18:06 40.12710 32.55397 35001 ft 447 kts 106°
2026-04-28 18:06 40.10982 32.63170 35004 ft 448 kts 106°
2026-04-28 18:07 40.09238 32.70992 35004 ft 449 kts 107°
2026-04-28 18:07 40.07484 32.78829 35006 ft 450 kts 107°
2026-04-28 18:08 40.05482 32.86560 35003 ft 450 kts 111°
2026-04-28 18:08 40.03201 32.94155 34996 ft 449 kts 112°
2026-04-28 18:09 40.00912 33.01746 34997 ft 449 kts 111°
2026-04-28 18:09 39.98651 33.09350 34998 ft 449 kts 111°
2026-04-28 18:10 39.96406 33.16935 34994 ft 448 kts 111°
2026-04-28 18:10 39.94178 33.24448 35002 ft 447 kts 111°
2026-04-28 18:11 39.91929 33.32003 35001 ft 447 kts 111°
2026-04-28 18:11 39.90796 33.35800 34687 ft 453 kts 111°
2026-04-28 18:11 39.89659 33.39606 34314 ft 449 kts 111°
2026-04-28 18:12 39.88531 33.43376 33932 ft 443 kts 111°
2026-04-28 18:12 39.87418 33.47093 33555 ft 437 kts 111°
2026-04-28 18:12 39.86318 33.50760 33186 ft 432 kts 111°
2026-04-28 18:12 39.85230 33.54384 32800 ft 428 kts 111°
2026-04-28 18:13 39.84147 33.57982 32424 ft 424 kts 111°
2026-04-28 18:13 39.83099 33.61561 32056 ft 421 kts 108°
2026-04-28 18:13 39.82282 33.65212 31669 ft 419 kts 105°
2026-04-28 18:13 39.81561 33.68872 31303 ft 416 kts 104°
2026-04-28 18:14 39.80870 33.72477 30935 ft 415 kts 104°
2026-04-28 18:14 39.80164 33.76103 30561 ft 413 kts 104°
2026-04-28 18:14 39.79443 33.79716 30190 ft 412 kts 105°
2026-04-28 18:14 39.78714 33.83312 29816 ft 410 kts 105°
2026-04-28 18:15 39.77983 33.86890 29444 ft 409 kts 105°
2026-04-28 18:15 39.77182 33.90437 29073 ft 408 kts 109°
2026-04-28 18:15 39.76243 33.93910 28706 ft 406 kts 110°
2026-04-28 18:15 39.75256 33.97350 28325 ft 405 kts 111°
2026-04-28 18:16 39.74262 34.00763 27958 ft 404 kts 111°
2026-04-28 18:16 39.73269 34.04172 27578 ft 402 kts 111°
2026-04-28 18:16 39.72289 34.07563 27204 ft 400 kts 111°
2026-04-28 18:16 39.71319 34.10939 26830 ft 398 kts 111°
2026-04-28 18:17 39.70358 34.14295 26453 ft 395 kts 110°
2026-04-28 18:17 39.69405 34.17633 26078 ft 393 kts 110°
2026-04-28 18:17 39.68459 34.20945 25703 ft 390 kts 110°
2026-04-28 18:17 39.67518 34.24241 25327 ft 388 kts 110°
2026-04-28 18:18 39.66584 34.27509 24961 ft 385 kts 110°
2026-04-28 18:18 39.65671 34.30700 24670 ft 380 kts 111°
2026-04-28 18:18 39.64753 34.33903 24368 ft 377 kts 111°
2026-04-28 18:18 39.64136 34.36054 24161 ft 374 kts 111°
2026-04-28 18:19 39.62938 34.40224 23762 ft 370 kts 111°
2026-04-28 18:19 39.62041 34.43340 23474 ft 367 kts 111°
2026-04-28 18:19 39.61152 34.46428 23200 ft 364 kts 111°
2026-04-28 18:19 39.60269 34.49490 22924 ft 362 kts 111°
2026-04-28 18:20 39.59383 34.52561 22662 ft 365 kts 111°
2026-04-28 18:20 39.58489 34.55653 22399 ft 368 kts 111°
2026-04-28 18:20 39.57590 34.58757 22111 ft 366 kts 111°
2026-04-28 18:20 39.56701 34.61829 21834 ft 363 kts 111°
2026-04-28 18:21 39.55813 34.64890 21559 ft 361 kts 111°
2026-04-28 18:21 39.54942 34.67892 21287 ft 360 kts 111°
2026-04-28 18:21 39.54063 34.70913 21012 ft 358 kts 111°
2026-04-28 18:21 39.53187 34.73926 20739 ft 356 kts 111°
2026-04-28 18:22 39.52314 34.76920 20462 ft 355 kts 111°
2026-04-28 18:22 39.51442 34.79911 20188 ft 354 kts 111°
2026-04-28 18:22 39.50573 34.82888 19914 ft 353 kts 111°
2026-04-28 18:22 39.49705 34.85854 19639 ft 352 kts 111°
2026-04-28 18:23 39.48840 34.88811 19364 ft 351 kts 111°
2026-04-28 18:23 39.47977 34.91756 19091 ft 349 kts 111°
2026-04-28 18:23 39.47114 34.94698 18814 ft 348 kts 111°
2026-04-28 18:23 39.46266 34.97589 18539 ft 347 kts 111°
2026-04-28 18:24 39.45408 35.00508 18269 ft 346 kts 111°
2026-04-28 18:24 39.44830 35.02472 18088 ft 345 kts 111°
2026-04-28 18:24 39.43700 35.06310 17670 ft 344 kts 109°
2026-04-28 18:24 39.42848 35.09200 17382 ft 343 kts 109°
2026-04-28 18:25 39.41999 35.12080 17093 ft 342 kts 109°
2026-04-28 18:25 39.41147 35.14949 16817 ft 341 kts 111°
2026-04-28 18:25 39.39911 35.17562 16502 ft 343 kts 131°
2026-04-28 18:26 39.35906 35.20757 15980 ft 340 kts 157°
2026-04-28 18:26 39.33714 35.21904 15705 ft 339 kts 158°
2026-04-28 18:26 39.31525 35.23042 15434 ft 338 kts 157°
2026-04-28 18:26 39.29350 35.24193 15166 ft 337 kts 157°
2026-04-28 18:27 39.27188 35.25357 14897 ft 336 kts 156°
2026-04-28 18:27 39.25035 35.26526 14636 ft 335 kts 156°
2026-04-28 18:27 39.22894 35.27691 14376 ft 334 kts 156°
2026-04-28 18:27 39.20755 35.28854 14114 ft 333 kts 156°
2026-04-28 18:28 39.18625 35.30009 13858 ft 332 kts 156°
2026-04-28 18:28 39.16494 35.31163 13577 ft 331 kts 156°
2026-04-28 18:28 39.14395 35.32300 13293 ft 331 kts 156°
2026-04-28 18:28 39.12280 35.33445 13002 ft 328 kts 156°
2026-04-28 18:29 39.10186 35.34578 12712 ft 324 kts 156°
2026-04-28 18:29 39.08121 35.35694 12431 ft 320 kts 157°
2026-04-28 18:29 39.06085 35.36815 12185 ft 314 kts 152°
2026-04-28 18:29 39.04398 35.38513 11981 ft 306 kts 128°
2026-04-28 18:30 39.03352 35.40836 11807 ft 298 kts 109°
2026-04-28 18:30 39.03133 35.41647 11765 ft 295 kts 107°
2026-04-28 18:30 39.02141 35.45771 11460 ft 285 kts 105°
2026-04-28 18:30 39.01569 35.48230 11300 ft 282 kts 105°
2026-04-28 18:31 39.01013 35.50603 11147 ft 279 kts 106°
2026-04-28 18:31 39.00451 35.52979 11009 ft 275 kts 106°
2026-04-28 18:31 38.99896 35.55305 10847 ft 269 kts 106°
2026-04-28 18:31 38.99350 35.57582 10700 ft 265 kts 107°
2026-04-28 18:32 38.98809 35.59825 10541 ft 261 kts 107°
2026-04-28 18:32 38.98273 35.62044 10392 ft 259 kts 107°
2026-04-28 18:32 38.97739 35.64251 10257 ft 258 kts 107°
2026-04-28 18:32 38.97204 35.66460 10100 ft 260 kts 107°
2026-04-28 18:33 38.96661 35.68695 9926 ft 263 kts 107°
2026-04-28 18:33 38.96112 35.70955 9740 ft 266 kts 108°
2026-04-28 18:33 38.95569 35.73188 9547 ft 263 kts 107°
2026-04-28 18:33 38.95027 35.75411 9333 ft 259 kts 107°
2026-04-28 18:34 38.94493 35.77599 9138 ft 254 kts 107°
2026-04-28 18:34 38.93972 35.79729 8987 ft 245 kts 107°
2026-04-28 18:34 38.93429 35.81755 8778 ft 237 kts 117°
2026-04-28 18:34 38.92328 35.83288 8594 ft 236 kts 150°
2026-04-28 18:35 38.90774 35.83847 8421 ft 234 kts 182°
2026-04-28 18:35 38.89210 35.83371 8227 ft 232 kts 206°
2026-04-28 18:35 38.87815 35.82353 7997 ft 228 kts 212°
2026-04-28 18:35 38.86485 35.81280 7740 ft 223 kts 212°
2026-04-28 18:36 38.85188 35.80237 7472 ft 218 kts 212°
2026-04-28 18:36 38.83914 35.79225 7245 ft 212 kts 212°
2026-04-28 18:36 38.82769 35.78085 6953 ft 207 kts 235°
2026-04-28 18:36 38.82127 35.76521 6761 ft 191 kts 253°
2026-04-28 18:37 38.81789 35.74924 6606 ft 179 kts 258°
2026-04-28 18:37 38.81513 35.73434 6455 ft 167 kts 258°
2026-04-28 18:37 38.81244 35.71991 6203 ft 163 kts 258°
2026-04-28 18:37 38.80978 35.70583 6000 ft 163 kts 258°
2026-04-28 18:38 38.80714 35.69188 5792 ft 163 kts 258°
2026-04-28 18:38 38.80452 35.67775 5588 ft 163 kts 258°
2026-04-28 18:38 38.80191 35.66366 5409 ft 163 kts 258°
2026-04-28 18:38 38.79931 35.64966 5191 ft 160 kts 258°
2026-04-28 18:39 38.79674 35.63584 5017 ft 160 kts 258°
2026-04-28 18:39 38.79417 35.62204 4818 ft 157 kts 257°
2026-04-28 18:39 38.79167 35.60861 4581 ft 153 kts 257°
2026-04-28 18:39 38.78921 35.59543 4346 ft 152 kts 257°
2026-04-28 18:40 38.78675 35.58229 4127 ft 152 kts 257°
2026-04-28 18:40 38.78428 35.56916 3964 ft 151 kts 257°
2026-04-28 18:40 38.78182 35.55602 3819 ft 152 kts 257°
2026-04-28 18:40 38.77936 35.54295 3719 ft 151 kts 256°
2026-04-28 18:41 38.77690 35.52986 3612 ft 151 kts 256°
2026-04-28 18:41 38.77443 35.51679 3516 ft 151 kts 256°
2026-04-28 18:41 38.77199 35.50381 3471 ft 145 kts 256°
2026-04-28 18:41 38.77035 35.49512 3465 ft 25 kts 256°
2026-04-28 18:42 38.77004 35.49351 3464 ft 18 kts 256°
2026-04-28 18:42 38.76975 35.49196 3462 ft 18 kts 256°
2026-04-28 18:42 38.76947 35.49047 3463 ft 17 kts 257°
2026-04-28 18:42 38.76922 35.48904 3462 ft 16 kts 257°
2026-04-28 18:43 38.76897 35.48765 3460 ft 16 kts 257°
2026-04-28 18:43 38.76873 35.48632 3460 ft 15 kts 257°
2026-04-28 18:43 38.76849 35.48504 3460 ft 14 kts 253°
2026-04-28 18:43 38.76814 35.48415 3460 ft 10 kts 231°
2026-04-28 18:44 38.76756 35.48385 3460 ft 9 kts 184°
2026-04-28 18:44 38.76678 35.48335 3460 ft 5 kts 254°
2026-04-28 18:44 38.76673 35.48309 3459 ft 5 kts 254°
2026-04-28 18:45 38.76652 35.48289 3459 ft 2 kts 180°
2026-04-28 18:45 38.76641 35.48290 3459 ft 1 kts 174°